AXM6224 WMKN-WMKK

Flight info

Callsign AXM6224
Flight time N/A
Altitude 26000
Route LASOB1B LASOB Y346 PULIP PULIP1G
Aircraft A20N/L-SDE3GHIJ2J3J5M1RVWXYZ/LB2D1

Departure

Time 2026-04-25 04:49
Airport Sultan Mahmud Airport (WMKN)

Arrival

Time N/A
Airport Kuala Lumpur International Airport (WMKK)
Time Latitude Longitude Altitude Speed Heading
2026-04-25 04:30 5.38020 103.10476 28 ft 0 kts 135°
2026-04-25 04:37 5.38026 103.10471 28 ft 3 kts 135°
2026-04-25 04:37 5.38039 103.10458 28 ft 3 kts 135°
2026-04-25 04:38 5.38052 103.10444 28 ft 2 kts 141°
2026-04-25 04:38 5.38068 103.10438 28 ft 3 kts 141°
2026-04-25 04:38 5.38075 103.10423 28 ft 3 kts 65°
2026-04-25 04:38 5.38072 103.10417 28 ft 0 kts 43°
2026-04-25 04:43 5.38078 103.10421 28 ft 3 kts 33°
2026-04-25 04:43 5.38111 103.10415 29 ft 6 kts 311°
2026-04-25 04:44 5.38133 103.10392 29 ft 4 kts 316°
2026-04-25 04:44 5.38149 103.10377 30 ft 2 kts 315°
2026-04-25 04:44 5.38158 103.10368 30 ft 1 kts 315°
2026-04-25 04:44 5.38174 103.10352 31 ft 6 kts 315°
2026-04-25 04:45 5.38236 103.10321 32 ft 13 kts
2026-04-25 04:45 5.38334 103.10400 32 ft 23 kts 43°
2026-04-25 04:45 5.38476 103.10539 32 ft 33 kts 44°
2026-04-25 04:45 5.38661 103.10721 32 ft 41 kts 44°
2026-04-25 04:46 5.38880 103.10938 32 ft 46 kts 45°
2026-04-25 04:46 5.39079 103.11129 32 ft 29 kts 39°
2026-04-25 04:46 5.39227 103.11204 32 ft 14 kts 60°
2026-04-25 04:46 5.39207 103.11250 32 ft 3 kts 186°
2026-04-25 04:47 5.39184 103.11233 32 ft 6 kts 230°
2026-04-25 04:47 5.39152 103.11203 32 ft 0 kts 224°
2026-04-25 04:48 5.39151 103.11202 32 ft 4 kts 224°
2026-04-25 04:48 5.38994 103.11047 32 ft 70 kts 224°
2026-04-25 04:48 5.38423 103.10486 33 ft 160 kts 224°
2026-04-25 04:48 5.37490 103.09572 330 ft 205 kts 224°
2026-04-25 04:49 5.36460 103.08550 1215 ft 204 kts 223°
2026-04-25 04:49 5.35530 103.07551 2400 ft 194 kts 232°
2026-04-25 04:49 5.35043 103.06335 3607 ft 180 kts 250°
2026-04-25 04:49 5.34646 103.05200 4680 ft 166 kts 249°
2026-04-25 04:50 5.34279 103.04143 5647 ft 154 kts 247°
2026-04-25 04:50 5.33915 103.03146 6464 ft 149 kts 248°
2026-04-25 04:50 5.33551 103.02189 7180 ft 146 kts 248°
2026-04-25 04:50 5.33177 103.01233 7828 ft 149 kts 247°
2026-04-25 04:51 5.32790 103.00256 8464 ft 152 kts 247°
2026-04-25 04:51 5.32396 102.99266 9093 ft 154 kts 246°
2026-04-25 04:51 5.31994 102.98265 9709 ft 156 kts 246°
2026-04-25 04:51 5.31587 102.97252 10229 ft 158 kts 246°
2026-04-25 04:52 5.31179 102.96238 10763 ft 159 kts 246°
2026-04-25 04:52 5.30763 102.95203 11276 ft 160 kts 246°
2026-04-25 04:52 5.30341 102.94157 11772 ft 164 kts 246°
2026-04-25 04:52 5.29877 102.93012 11995 ft 192 kts 246°
2026-04-25 04:53 5.29340 102.91689 12181 ft 218 kts 246°
2026-04-25 04:53 5.28744 102.90212 12600 ft 235 kts 246°
2026-04-25 04:53 5.28124 102.88672 13232 ft 241 kts 246°
2026-04-25 04:53 5.27493 102.87105 13949 ft 244 kts 246°
2026-04-25 04:54 5.26850 102.85510 14593 ft 248 kts 246°
2026-04-25 04:54 5.26199 102.83894 15183 ft 252 kts 246°
2026-04-25 04:54 5.25536 102.82250 15828 ft 256 kts 246°
2026-04-25 04:54 5.24865 102.80588 16464 ft 259 kts 246°
2026-04-25 04:55 5.24182 102.78896 17101 ft 263 kts 246°
2026-04-25 04:55 5.23499 102.77204 17735 ft 266 kts 246°
2026-04-25 04:55 5.22801 102.75474 18353 ft 270 kts 246°
2026-04-25 04:55 5.22090 102.73715 18918 ft 273 kts 246°
2026-04-25 04:56 5.21373 102.71939 19503 ft 274 kts 246°
2026-04-25 04:56 5.20601 102.70188 20064 ft 275 kts 234°
2026-04-25 04:56 5.19234 102.68892 20558 ft 272 kts 206°
2026-04-25 04:56 5.17567 102.68027 21102 ft 273 kts 202°
2026-04-25 04:57 5.15849 102.67210 21647 ft 275 kts 202°
2026-04-25 04:57 5.14107 102.66363 22212 ft 278 kts 203°
2026-04-25 04:57 5.12364 102.65488 22715 ft 282 kts 204°
2026-04-25 04:57 5.10606 102.64589 23238 ft 284 kts 204°
2026-04-25 04:58 5.08839 102.63675 23745 ft 287 kts 204°
2026-04-25 04:58 5.07056 102.62747 24201 ft 290 kts 205°
2026-04-25 04:58 5.05281 102.61820 24672 ft 292 kts 205°
2026-04-25 04:58 5.03472 102.60874 25121 ft 294 kts 205°
2026-04-25 04:59 5.01653 102.59921 25586 ft 297 kts 205°
2026-04-25 04:59 4.99782 102.58942 25853 ft 309 kts 205°
2026-04-25 04:59 4.97816 102.57915 25899 ft 329 kts 205°
2026-04-25 04:59 4.95718 102.56818 25903 ft 350 kts 205°
2026-04-25 05:00 4.93498 102.55655 25900 ft 370 kts 206°
2026-04-25 05:00 4.91156 102.54429 25900 ft 389 kts 206°
2026-04-25 05:00 4.88716 102.53151 25902 ft 406 kts 206°
2026-04-25 05:00 4.86131 102.51796 25904 ft 423 kts 206°
2026-04-25 05:01 4.83507 102.50421 25906 ft 438 kts 206°
2026-04-25 05:01 4.80752 102.48978 25904 ft 453 kts 206°
2026-04-25 05:01 4.77913 102.47491 25907 ft 466 kts 206°
2026-04-25 05:01 4.74992 102.45962 25904 ft 479 kts 206°
2026-04-25 05:02 4.72011 102.44400 25903 ft 490 kts 206°
2026-04-25 05:02 4.68986 102.42816 25902 ft 500 kts 206°
2026-04-25 05:02 4.65873 102.41186 25911 ft 509 kts 206°
2026-04-25 05:02 4.62704 102.39527 25904 ft 518 kts 206°
2026-04-25 05:03 4.59554 102.37876 27040 ft 492 kts 206°
2026-04-25 05:03 4.56710 102.36377 28632 ft 438 kts 206°
2026-04-25 05:03 4.54066 102.34978 28675 ft 423 kts 206°
2026-04-25 05:03 4.51534 102.33636 28445 ft 413 kts 206°
2026-04-25 05:04 4.49025 102.32304 28231 ft 404 kts 206°
2026-04-25 05:04 4.46562 102.30994 27990 ft 396 kts 206°
2026-04-25 05:04 4.44155 102.29711 27736 ft 388 kts 206°
2026-04-25 05:04 4.41776 102.28443 27246 ft 388 kts 206°
2026-04-25 05:05 4.39381 102.27167 26599 ft 392 kts 206°
2026-04-25 05:05 4.36991 102.25893 25977 ft 396 kts 206°
2026-04-25 05:05 4.34546 102.24589 25407 ft 399 kts 206°
2026-04-25 05:05 4.32123 102.23288 25134 ft 391 kts 206°
2026-04-25 05:06 4.29736 102.22077 25221 ft 373 kts 204°
2026-04-25 05:06 4.27479 102.20966 25449 ft 350 kts 204°
2026-04-25 05:06 4.25370 102.19912 25671 ft 328 kts 204°
2026-04-25 05:06 4.23400 102.18911 25864 ft 307 kts 205°
2026-04-25 05:07 4.21544 102.17959 25899 ft 292 kts 205°
2026-04-25 05:07 4.19816 102.17066 25894 ft 277 kts 205°
2026-04-25 05:07 4.18116 102.16184 25891 ft 261 kts 204°
2026-04-25 05:07 4.16561 102.15374 25886 ft 243 kts 204°
2026-04-25 05:08 4.15067 102.14598 25902 ft 251 kts 204°
2026-04-25 05:08 4.13453 102.13769 25908 ft 268 kts 204°
2026-04-25 05:08 4.11770 102.12908 25722 ft 290 kts 204°
2026-04-25 05:08 4.09756 102.11893 24736 ft 353 kts 204°
2026-04-25 05:09 4.07456 102.10744 24404 ft 385 kts 204°
2026-04-25 05:09 4.04954 102.09500 24042 ft 417 kts 205°
2026-04-25 05:09 4.02291 102.08090 23659 ft 446 kts 206°
2026-04-25 05:09 3.99479 102.06566 23233 ft 473 kts 206°
2026-04-25 05:10 3.96500 102.04969 22650 ft 499 kts 206°
2026-04-25 05:10 3.93372 102.03312 22850 ft 502 kts 206°
2026-04-25 05:10 3.90350 102.01719 23746 ft 495 kts 206°
2026-04-25 05:10 3.87274 102.00102 23848 ft 503 kts 206°
2026-04-25 05:11 3.84153 101.98467 24123 ft 507 kts 206°
2026-04-25 05:11 3.81026 101.96831 24457 ft 508 kts 206°
2026-04-25 05:11 3.77887 101.95190 24841 ft 509 kts 206°
2026-04-25 05:12 3.71611 101.91913 25711 ft 507 kts 206°
2026-04-25 05:12 3.68486 101.90297 26194 ft 505 kts 204°
2026-04-25 05:12 3.65240 101.88969 26694 ft 502 kts 198°
2026-04-25 05:12 3.61937 101.87831 27207 ft 500 kts 197°
2026-04-25 05:13 3.58629 101.86728 27677 ft 500 kts 197°
2026-04-25 05:13 3.55293 101.85622 27736 ft 495 kts 197°
2026-04-25 05:13 3.52165 101.84583 28218 ft 465 kts 197°
2026-04-25 05:13 3.49209 101.83599 28515 ft 430 kts 197°
2026-04-25 05:14 3.46456 101.82678 28376 ft 406 kts 197°
2026-04-25 05:14 3.43827 101.81799 27916 ft 391 kts 197°
2026-04-25 05:14 3.41285 101.80949 27429 ft 379 kts 196°
2026-04-25 05:15 3.36302 101.79289 25726 ft 380 kts 196°
2026-04-25 05:15 3.33775 101.78466 24785 ft 383 kts 194°
2026-04-25 05:15 3.31201 101.77748 23776 ft 386 kts 192°
2026-04-25 05:15 3.28523 101.77378 22233 ft 394 kts 174°
2026-04-25 05:16 3.25828 101.77926 20664 ft 399 kts 161°
2026-04-25 05:16 3.23266 101.79041 19019 ft 405 kts 145°
2026-04-25 05:16 3.21027 101.80781 17304 ft 410 kts 139°
2026-04-25 05:16 3.18816 101.82627 15707 ft 417 kts 139°
2026-04-25 05:17 3.16606 101.84513 14339 ft 414 kts 138°
2026-04-25 05:17 3.14494 101.86368 12973 ft 406 kts 137°
2026-04-25 05:17 3.12384 101.88206 11889 ft 397 kts 138°
2026-04-25 05:17 3.10339 101.89960 11334 ft 377 kts 138°
2026-04-25 05:18 3.08446 101.91687 10605 ft 360 kts 129°
2026-04-25 05:18 3.07271 101.93810 9849 ft 343 kts 106°
2026-04-25 05:18 3.06933 101.96113 9103 ft 327 kts 92°
2026-04-25 05:18 3.06925 101.98339 8425 ft 313 kts 90°
2026-04-25 05:19 3.06934 102.00474 7815 ft 300 kts 89°
2026-04-25 05:19 3.06837 102.02502 7419 ft 286 kts 96°
2026-04-25 05:19 3.06483 102.04546 7074 ft 314 kts 103°
2026-04-25 05:19 3.05857 102.06748 6717 ft 342 kts 108°
2026-04-25 05:20 3.04853 102.08970 6493 ft 358 kts 120°
2026-04-25 05:20 3.03320 102.10985 6242 ft 371 kts 133°
2026-04-25 05:20 3.01320 102.12660 5983 ft 381 kts 146°
2026-04-25 05:20 3.00694 102.13058 5967 ft 381 kts 148°